Regional Weather Roundup
Issued by NWS

Home | Current Version | Previous Version | Text Only | Print | Product List | Glossary Off
Versions: 1 2 3 4 5 6 7 8 9 10 11 12 13 14 15 16 17 18 19 20 21 22 23 24 25 26 27 28 29 30 31 32 33 34 35 36 37 38 39 40 41 42 43 44 45 46 47 48 49 50

000
ASUS43 KIND 250859
RWRIN

WEATHER ROUNDUP FOR INDIANA
NATIONAL WEATHER SERVICE INDIANAPOLIS IN
400 AM EST SAT FEB 25 2017

NOTE: "FAIR" INDICATES FEW OR NO CLOUDS BELOW 12,000 FEET WITH NO
SIGNIFICANT WEATHER AND/OR OBSTRUCTIONS TO VISIBILITY.

* - STATION DOES NOT REPORT WEATHER SUCH AS PRECIPITATION OR FOG.

+ - STATION NOT QUALITY CONTROLLED BY THE NATIONAL WEATHER SERVICE.
    USE DATA WITH CAUTION...ESPECIALLY DEWPOINT AND RELATIVE
    HUMIDITY OBSERVATIONS.

INZ001>003-010>013-019-020-251000-
NORTHWEST INDIANA

CITY           SKY/WX    TMP DP  RH WIND       PRES   REMARKS
KNOX *+        CLOUDY    34  14  44 W16       29.60R WCI  23
MICHIGAN CITY+ CLOUDY    32  32 100 W14G20    29.60S WCI  22
RENSSELAER +   CLOUDY    34  32  93 W14       29.63R WCI  24

$$

LMZ046-743>745-251000-
SOUTHERN LAKE MICHIGAN

STATION/POSITION TIME  TEMP    WIND        PRES    WAVE
                       AIR SEA DIR/SP/G            HT
                 (UTC) (F)     (DEG/KT/KT) (MB)    (FT)
BURNS HARBOR     0840   34     260/ 19/ 23 1003.0R
MICHIGAN CITY    0830   33     240/ 23/ 26   N/A

$$

INZ004-005-014>016-021>024-251000-
NORTH CENTRAL INDIANA

CITY           SKY/WX    TMP DP  RH WIND       PRES   REMARKS
GOSHEN         CLOUDY    38  32  79 SW14      29.55F
PERU/GRISSOM   CLOUDY    37  34  87 W20G25    29.59S
SOUTH BEND     CLOUDY    34  31  88 W17       29.57S WCI  23

$$

INZ006>009-017-018-025>027-251000-
NORTHEAST INDIANA

CITY           SKY/WX    TMP DP  RH WIND       PRES   REMARKS
ANGOLA *+      CLOUDY    37  36  93 W10       29.53F
FORT WAYNE     LGT RAIN  39  35  86 W16       29.57F
KENDALLVILLE + CLOUDY    39  33  79 W12G24    29.54F

$$

INZ028-029-035-036-043>045-051>053-251000-
WEST CENTRAL INDIANA

CITY           SKY/WX    TMP DP  RH WIND       PRES   REMARKS
LAFAYETTE      FLURRIES  35  32  88 SW15G23   29.64R WCI  25
TERRE HAUTE    CLOUDY    35  25  66 W20G31    29.73R WCI  24

$$

INZ030>032-037>040-046>048-054>057-064-065-251000-
CENTRAL INDIANA

CITY           SKY/WX    TMP DP  RH WIND       PRES   REMARKS
GREENWOOD *+   CLOUDY    40  29  64 W21G30    29.67R
INDIANAPOLIS   CLOUDY    38  27  64 W26G32    29.67R
-EAGLE CREEK   CLOUDY    38  24  57 W15G30    29.66R
KOKOMO +       CLOUDY    39  32  76 W22G30    29.61F
MT COMFORT *+  CLOUDY    39  32  75 W15       29.65S
SHELBYVILLE    CLOUDY    42  29  59 W18G29    29.66S

$$

INZ033-034-041-042-049-050-058-059-251000-
EAST CENTRAL INDIANA

CITY           SKY/WX    TMP DP  RH WIND       PRES   REMARKS
MUNCIE         CLOUDY    41  33  73 W13G21    29.61F

$$

INZ060-061-067>069-081>083-085>088-251000-
SOUTHWEST INDIANA

CITY           SKY/WX    TMP DP  RH WIND       PRES   REMARKS
EVANSVILLE     CLOUDY    38  25  59 W20G30    29.82R
HUNTINGBURG *+ CLOUDY    39  30  70 NW16G24   29.78R

$$

INZ062-063-066-070>080-084-089>092-251000-
SOUTH CENTRAL AND SOUTHEAST INDIANA

CITY           SKY/WX    TMP DP  RH WIND       PRES   REMARKS
BLOOMINGTON    CLOUDY    39  28  64 W16G25    29.71R
MADISON *+     PTCLDY    43  32  65 W5        29.71S
SEYMOUR +      CLOUDY    43  34  70 W13       29.70R

$$




USA.gov is the U.S. government's official web portal to all federal, state and local government web resources and services.